| time (UTC) | temp F | wind direction | speed MPH | gust MPH | rain 1hr in | rain 24hr in | rain mn in | humidity % | barometer mb |
| 20260831232014 | 91 | 263 | 4.0 | 10.0 | 0.00 | 0.00 | 0.00 | 10 | 1012.1 |
| 20260831231523 | 94 | 202 | 4.0 | 10.0 | 0.00 | 0.00 | 0.00 | 10 | 1012.2 |
| 20260831231013 | 93 | 323 | 2.0 | 8.0 | 0.00 | 0.00 | 0.00 | 9 | 1012.3 |
| 20260831230517 | 92 | 40 | 3.0 | 5.0 | 0.00 | 0.00 | 0.00 | 10 | 1012.3 |
| 20260831230012 | 91 | 263 | 1.0 | 6.0 | 0.00 | 0.00 | 0.00 | 10 | 1012.4 |
| 20260831225511 | 91 | 105 | 2.0 | 9.0 | 0.00 | 0.00 | 0.00 | 10 | 1012.5 |
| 20260831225010 | 92 | 139 | 3.0 | 9.0 | 0.00 | 0.00 | 0.00 | 10 | 1012.7 |
| 20260831224528 | 91 | 5 | 2.0 | 10.0 | 0.00 | 0.00 | 0.00 | 10 | 1012.7 |
| 20260831224013 | 91 | 346 | 3.0 | 10.0 | 0.00 | 0.00 | 0.00 | 10 | 1012.8 |
| 20260831223509 | 90 | 5 | 4.0 | 11.0 | 0.00 | 0.00 | 0.00 | 10 | 1012.9 |
| 20260831223007 | 89 | 355 | 6.0 | 11.0 | 0.00 | 0.00 | 0.00 | 10 | 1013.0 |
| 20260831222507 | 89 | 286 | 4.0 | 14.0 | 0.00 | 0.00 | 0.00 | 10 | 1013.1 |
| 20260831222007 | 89 | 360 | 4.0 | 14.0 | 0.00 | 0.00 | 0.00 | 11 | 1013.1 |
| 20260831221506 | 91 | 258 | 7.0 | 12.0 | 0.00 | 0.00 | 0.00 | 10 | 1013.2 |
| 20260831221005 | 92 | 350 | 4.0 | 11.0 | 0.00 | 0.00 | 0.00 | 10 | 1013.2 |
| 20260831220505 | 91 | 360 | 3.0 | 10.0 | 0.00 | 0.00 | 0.00 | 10 | 1013.4 |
| 20260831220004 | 92 | 278 | 6.0 | 10.0 | 0.00 | 0.00 | 0.00 | 10 | 1013.5 |
| 20260831215504 | 93 | 284 | 2.0 | 9.0 | 0.00 | 0.00 | 0.00 | 10 | 1013.5 |
| 20260831215002 | 93 | 42 | 4.0 | 9.0 | 0.00 | 0.00 | 0.00 | 10 | 1013.6 |
| 20260831214501 | 93 | 347 | 4.0 | 9.0 | 0.00 | 0.00 | 0.00 | 10 | 1013.7 |
| 20260831214103 | 92 | 17 | 5.0 | 9.0 | 0.00 | 0.00 | 0.00 | 10 | 1013.7 |
| 20260831213559 | 93 | 73 | 3.0 | 7.0 | 0.00 | 0.00 | 0.00 | 10 | 1013.9 |
| 20260831213059 | 92 | 56 | 2.0 | 9.0 | 0.00 | 0.00 | 0.00 | 10 | 1014.0 |
| 20260831212600 | 91 | 355 | 1.0 | 9.0 | 0.00 | 0.00 | 0.00 | 10 | 1014.1 |
| 20260831212100 | 90 | 14 | 4.0 | 9.0 | 0.00 | 0.00 | 0.00 | 10 | 1014.2 |
| 20260831211608 | 91 | 262 | 3.0 | 8.0 | 0.00 | 0.00 | 0.00 | 10 | 1014.2 |
| 20260831211056 | 93 | 294 | 1.0 | 9.0 | 0.00 | 0.00 | 0.00 | 9 | 1014.3 |
| 20260831210555 | 93 | 55 | 3.0 | 9.0 | 0.00 | 0.00 | 0.00 | 10 | 1014.5 |
| 20260831210100 | 92 | 71 | 3.0 | 9.0 | 0.00 | 0.00 | 0.00 | 10 | 1014.5 |
| 20260831205554 | 92 | 67 | 3.0 | 12.0 | 0.00 | 0.00 | 0.00 | 10 | 1014.6 |
| 20260831205054 | 93 | 51 | 4.0 | 10.0 | 0.00 | 0.00 | 0.00 | 10 | 1014.6 |
| 20260831204552 | 93 | 345 | 3.0 | 7.0 | 0.00 | 0.00 | 0.00 | 10 | 1014.7 |
| 20260831204051 | 92 | 336 | 2.0 | 6.0 | 0.00 | 0.00 | 0.00 | 10 | 1014.7 |
| 20260831203549 | 91 | 325 | 2.0 | 9.0 | 0.00 | 0.00 | 0.00 | 10 | 1014.9 |
| 20260831203050 | 91 | 292 | 3.0 | 9.0 | 0.00 | 0.00 | 0.00 | 10 | 1014.9 |
| 20260831202547 | 91 | 32 | 2.0 | 9.0 | 0.00 | 0.00 | 0.00 | 10 | 1015.0 |
| 20260831202047 | 90 | 34 | 1.0 | 8.0 | 0.00 | 0.00 | 0.00 | 11 | 1015.2 |
| 20260831201546 | 88 | 355 | 3.0 | 6.0 | 0.00 | 0.00 | 0.00 | 11 | 1015.2 |
| 20260831201046 | 88 | 323 | 1.0 | 6.0 | 0.00 | 0.00 | 0.00 | 10 | 1015.4 |
| 20260831200545 | 89 | 46 | 2.0 | 9.0 | 0.00 | 0.00 | 0.00 | 10 | 1015.5 |
| 20260831200044 | 89 | 348 | 2.0 | 10.0 | 0.00 | 0.00 | 0.00 | 10 | 1015.6 |
| 20260831195546 | 90 | 42 | 2.0 | 10.0 | 0.00 | 0.00 | 0.00 | 10 | 1015.7 |
| 20260831195044 | 89 | 5 | 2.0 | 6.0 | 0.00 | 0.00 | 0.00 | 10 | 1015.7 |
| 20260831194554 | 89 | 69 | 2.0 | 10.0 | 0.00 | 0.00 | 0.00 | 10 | 1015.9 |
| 20260831194040 | 89 | 110 | 3.0 | 10.0 | 0.00 | 0.00 | 0.00 | 10 | 1016.0 |
| 20260831193543 | 90 | 68 | 2.0 | 6.0 | 0.00 | 0.00 | 0.00 | 10 | 1016.2 |
| 20260831193048 | 89 | 107 | 2.0 | 5.0 | 0.00 | 0.00 | 0.00 | 11 | 1016.2 |
| 20260831192536 | 88 | 139 | 2.0 | 5.0 | 0.00 | 0.00 | 0.00 | 11 | 1016.3 |
| 20260831192035 | 88 | 303 | 2.0 | 6.0 | 0.00 | 0.00 | 0.00 | 11 | 1016.4 |
| 20260831191545 | 86 | 11 | 1.0 | 6.0 | 0.00 | 0.00 | 0.00 | 12 | 1016.4 |
| 20260831191037 | 85 | 258 | 1.0 | 8.0 | 0.00 | 0.00 | 0.00 | 12 | 1016.5 |
| 20260831190533 | 87 | 46 | 2.0 | 8.0 | 0.00 | 0.00 | 0.00 | 12 | 1016.6 |
| 20260831190032 | 86 | 50 | 0.0 | 6.0 | 0.00 | 0.00 | 0.00 | 12 | 1016.6 |
| 20260831185531 | 86 | 155 | 1.0 | 6.0 | 0.00 | 0.00 | 0.00 | 12 | 1016.7 |
| 20260831185029 | 85 | 51 | 2.0 | 7.0 | 0.00 | 0.00 | 0.00 | 13 | 1016.8 |
| 20260831184528 | 85 | 135 | 1.0 | 8.0 | 0.00 | 0.00 | 0.00 | 13 | 1016.9 |
| 20260831184027 | 85 | 108 | 2.0 | 8.0 | 0.00 | 0.00 | 0.00 | 13 | 1017.0 |
| 20260831183527 | 84 | 247 | 2.0 | 5.0 | 0.00 | 0.00 | 0.00 | 13 | 1017.0 |
| 20260831183029 | 85 | 213 | 2.0 | 5.0 | 0.00 | 0.00 | 0.00 | 13 | 1017.2 |
| 20260831182525 | 85 | 27 | 0.0 | 7.0 | 0.00 | 0.00 | 0.00 | 13 | 1017.3 |
| 20260831182024 | 83 | 32 | 1.0 | 8.0 | 0.00 | 0.00 | 0.00 | 14 | 1017.3 |
| 20260831181524 | 83 | 69 | 4.0 | 8.0 | 0.00 | 0.00 | 0.00 | 14 | 1017.4 |
| 20260831181023 | 84 | 184 | 1.0 | 4.0 | 0.00 | 0.00 | 0.00 | 15 | 1017.4 |
| 20260831180526 | 84 | 69 | 2.0 | 5.0 | 0.00 | 0.00 | 0.00 | 15 | 1017.5 |
| 20260831180021 | 84 | 99 | 2.0 | 6.0 | 0.00 | 0.00 | 0.00 | 16 | 1017.5 |
| 20260831175521 | 83 | 5 | 1.0 | 4.0 | 0.00 | 0.00 | 0.00 | 16 | 1017.5 |
| 20260831175020 | 84 | 67 | 2.0 | 5.0 | 0.00 | 0.00 | 0.00 | 16 | 1017.6 |
| 20260831174519 | 83 | 348 | 2.0 | 5.0 | 0.00 | 0.00 | 0.00 | 17 | 1017.6 |
| 20260831174018 | 83 | 74 | 1.0 | 5.0 | 0.00 | 0.00 | 0.00 | 16 | 1017.6 |
| 20260831173518 | 82 | 288 | 2.0 | 5.0 | 0.00 | 0.00 | 0.00 | 16 | 1017.6 |
| 20260831173022 | 82 | 20 | 2.0 | 4.0 | 0.00 | 0.00 | 0.00 | 17 | 1017.6 |
| 20260831172515 | 81 | 346 | 2.0 | 4.0 | 0.00 | 0.00 | 0.00 | 18 | 1017.7 |
| 20260831172019 | 81 | 355 | 0.0 | 5.0 | 0.00 | 0.00 | 0.00 | 19 | 1017.7 |
| 20260831171515 | 80 | 360 | 3.0 | 5.0 | 0.00 | 0.00 | 0.00 | 19 | 1017.8 |
| 20260831171012 | 80 | 14 | 2.0 | 5.0 | 0.00 | 0.00 | 0.00 | 19 | 1017.8 |
| 20260831170511 | 79 | 63 | 2.0 | 5.0 | 0.00 | 0.00 | 0.00 | 20 | 1017.7 |
| 20260831170009 | 78 | 31 | 2.0 | 5.0 | 0.00 | 0.00 | 0.00 | 21 | 1017.7 |
| 20260831165508 | 77 | 24 | 1.0 | 6.0 | 0.00 | 0.00 | 0.00 | 21 | 1017.8 |
| 20260831165006 | 76 | 345 | 0.0 | 6.0 | 0.00 | 0.00 | 0.00 | 23 | 1017.7 |
| 20260831164506 | 76 | 350 | 3.0 | 6.0 | 0.00 | 0.00 | 0.00 | 22 | 1017.8 |
| 20260831164004 | 74 | 5 | 3.0 | 6.0 | 0.00 | 0.00 | 0.00 | 23 | 1017.8 |
| 20260831163504 | 73 | 259 | 1.0 | 7.0 | 0.00 | 0.00 | 0.00 | 24 | 1017.8 |
| 20260831163007 | 73 | 38 | 3.0 | 7.0 | 0.00 | 0.00 | 0.00 | 24 | 1017.8 |
| 20260831162504 | 72 | 271 | 1.0 | 8.0 | 0.00 | 0.00 | 0.00 | 25 | 1017.8 |
| 20260831162003 | 72 | 258 | 4.0 | 9.0 | 0.00 | 0.00 | 0.00 | 25 | 1017.8 |
| 20260831161503 | 72 | 238 | 4.0 | 9.0 | 0.00 | 0.00 | 0.00 | 25 | 1017.9 |
| 20260831161003 | 72 | 206 | 2.0 | 8.0 | 0.00 | 0.00 | 0.00 | 24 | 1017.9 |
| 20260831160505 | 73 | 17 | 0.0 | 3.0 | 0.00 | 0.00 | 0.00 | 25 | 1017.9 |
| 20260831160001 | 72 | 46 | 0.0 | 3.0 | 0.00 | 0.00 | 0.00 | 26 | 1018.1 |
| 20260831155602 | 71 | 47 | 1.0 | 3.0 | 0.00 | 0.00 | 0.00 | 26 | 1018.2 |
| 20260831155059 | 70 | 15 | 0.0 | 2.0 | 0.00 | 0.00 | 0.00 | 26 | 1018.2 |
| 20260831154619 | 70 | 44 | 0.0 | 2.0 | 0.00 | 0.00 | 0.00 | 27 | 1018.3 |
| 20260831154057 | 69 | 46 | 0.0 | 3.0 | 0.00 | 0.00 | 0.00 | 27 | 1018.3 |
| 20260831153556 | 68 | 33 | 1.0 | 4.0 | 0.00 | 0.00 | 0.00 | 27 | 1018.3 |
| 20260831153058 | 68 | 38 | 0.0 | 4.0 | 0.00 | 0.00 | 0.00 | 27 | 1018.3 |
| 20260831152558 | 67 | 49 | 0.0 | 2.0 | 0.00 | 0.00 | 0.00 | 27 | 1018.3 |
| 20260831152056 | 66 | 44 | 0.0 | 2.0 | 0.00 | 0.00 | 0.00 | 27 | 1018.4 |
| 20260831151610 | 66 | 44 | 0.0 | 2.0 | 0.00 | 0.00 | 0.00 | 28 | 1018.4 |
| 20260831151056 | 65 | 40 | 0.0 | 2.0 | 0.00 | 0.00 | 0.00 | 28 | 1018.4 |
| 20260831150556 | 64 | 40 | 0.0 | 2.0 | 0.00 | 0.00 | 0.00 | 28 | 1018.4 |
| 20260831150056 | 64 | 41 | 0.0 | 2.0 | 0.00 | 0.00 | 0.00 | 27 | 1018.4 |
| 20260831145555 | 63 | 55 | 0.0 | 2.0 | 0.00 | 0.00 | 0.00 | 27 | 1018.4 |
| 20260831145054 | 63 | 59 | 0.0 | 2.0 | 0.00 | 0.00 | 0.00 | 27 | 1018.4 |
| 20260831144554 | 62 | 51 | 0.0 | 2.0 | 0.00 | 0.00 | 0.00 | 27 | 1018.3 |
| 20260831144054 | 61 | 57 | 0.0 | 2.0 | 0.00 | 0.00 | 0.00 | 28 | 1018.2 |
| 20260831143554 | 61 | 37 | 1.0 | 2.0 | 0.00 | 0.00 | 0.00 | 29 | 1018.2 |
| 20260831143105 | 61 | 30 | 0.0 | 2.0 | 0.00 | 0.00 | 0.00 | 30 | 1018.2 |
| 20260831142554 | 61 | 46 | 0.0 | 2.0 | 0.00 | 0.00 | 0.00 | 30 | 1018.2 |
| 20260831142057 | 61 | 31 | 0.0 | 3.0 | 0.00 | 0.00 | 0.00 | 31 | 1018.2 |
| 20260831141553 | 62 | 355 | 0.0 | 4.0 | 0.00 | 0.00 | 0.00 | 30 | 1018.1 |
| 20260831141053 | 63 | 34 | 1.0 | 8.0 | 0.00 | 0.00 | 0.00 | 29 | 1018.1 |
| 20260831140552 | 65 | 64 | 1.0 | 9.0 | 0.00 | 0.00 | 0.00 | 28 | 1018.1 |
| 20260831140052 | 65 | 248 | 4.0 | 12.0 | 0.00 | 0.00 | 0.00 | 28 | 1017.9 |
| 20260831135552 | 65 | 259 | 4.0 | 12.0 | 0.00 | 0.00 | 0.00 | 28 | 1017.8 |
| 20260831135052 | 65 | 240 | 7.0 | 12.0 | 0.00 | 0.00 | 0.00 | 28 | 1017.8 |
| 20260831134558 | 64 | 238 | 5.0 | 12.0 | 0.00 | 0.00 | 0.00 | 28 | 1017.8 |
| 20260831134050 | 64 | 252 | 5.0 | 13.0 | 0.00 | 0.00 | 0.00 | 28 | 1017.8 |
| 20260831133550 | 64 | 236 | 6.0 | 13.0 | 0.00 | 0.00 | 0.00 | 28 | 1017.7 |
| 20260831133050 | 65 | 250 | 6.0 | 12.0 | 0.00 | 0.00 | 0.00 | 27 | 1017.6 |
| 20260831132552 | 65 | 262 | 5.0 | 11.0 | 0.00 | 0.00 | 0.00 | 27 | 1017.6 |
| 20260831132050 | 65 | 246 | 4.0 | 11.0 | 0.00 | 0.00 | 0.00 | 28 | 1017.6 |
| 20260831131606 | 65 | 212 | 3.0 | 8.0 | 0.00 | 0.00 | 0.00 | 28 | 1017.5 |
| 20260831131049 | 65 | 172 | 2.0 | 9.0 | 0.00 | 0.00 | 0.00 | 28 | 1017.6 |
| 20260831130549 | 65 | 49 | 3.0 | 9.0 | 0.00 | 0.00 | 0.00 | 27 | 1017.5 |
| 20260831130105 | 65 | 208 | 1.0 | 6.0 | 0.00 | 0.00 | 0.00 | 27 | 1017.5 |
| 20260831125549 | 65 | 304 | 1.0 | 8.0 | 0.00 | 0.00 | 0.00 | 27 | 1017.5 |
| 20260831125048 | 66 | 271 | 1.0 | 9.0 | 0.00 | 0.00 | 0.00 | 26 | 1017.5 |
| 20260831124551 | 66 | 253 | 3.0 | 10.0 | 0.00 | 0.00 | 0.00 | 26 | 1017.5 |
| 20260831124048 | 66 | 217 | 4.0 | 10.0 | 0.00 | 0.00 | 0.00 | 26 | 1017.5 |
| 20260831123548 | 66 | 238 | 4.0 | 12.0 | 0.00 | 0.00 | 0.00 | 26 | 1017.5 |
| 20260831123050 | 66 | 238 | 4.0 | 12.0 | 0.00 | 0.00 | 0.00 | 26 | 1017.5 |
| 20260831122547 | 66 | 232 | 6.0 | 12.0 | 0.00 | 0.00 | 0.00 | 26 | 1017.5 |
| 20260831122047 | 66 | 208 | 6.0 | 11.0 | 0.00 | 0.00 | 0.00 | 26 | 1017.5 |
| 20260831121552 | 66 | 211 | 4.0 | 9.0 | 0.00 | 0.00 | 0.00 | 25 | 1017.5 |
| 20260831121047 | 66 | 244 | 4.0 | 9.0 | 0.00 | 0.00 | 0.00 | 25 | 1017.5 |
| 20260831120547 | 66 | 193 | 5.0 | 9.0 | 0.00 | 0.00 | 0.00 | 25 | 1017.5 |
| 20260831120046 | 66 | 208 | 4.0 | 10.0 | 0.00 | 0.00 | 0.00 | 25 | 1017.6 |
| 20260831115545 | 66 | 252 | 4.0 | 10.0 | 0.00 | 0.00 | 0.00 | 25 | 1017.7 |
| 20260831115045 | 66 | 234 | 3.0 | 8.0 | 0.00 | 0.00 | 0.00 | 26 | 1017.7 |
| 20260831114544 | 66 | 205 | 3.0 | 6.0 | 0.00 | 0.00 | 0.00 | 25 | 1017.8 |
| 20260831114044 | 66 | 180 | 4.0 | 6.0 | 0.00 | 0.00 | 0.00 | 25 | 1017.8 |
| 20260831113544 | 66 | 228 | 3.0 | 9.0 | 0.00 | 0.00 | 0.00 | 25 | 1017.8 |
| 20260831113044 | 66 | 237 | 4.0 | 10.0 | 0.00 | 0.00 | 0.00 | 25 | 1017.9 |
| 20260831112543 | 67 | 232 | 4.0 | 10.0 | 0.00 | 0.00 | 0.00 | 25 | 1017.9 |
| 20260831112045 | 67 | 230 | 5.0 | 11.0 | 0.00 | 0.00 | 0.00 | 25 | 1017.9 |
| 20260831111543 | 67 | 236 | 7.0 | 11.0 | 0.00 | 0.00 | 0.00 | 25 | 1018.0 |
| 20260831111042 | 67 | 236 | 5.0 | 11.0 | 0.00 | 0.00 | 0.00 | 25 | 1018.1 |
| 20260831110542 | 67 | 226 | 5.0 | 10.0 | 0.00 | 0.00 | 0.00 | 25 | 1018.0 |
| 20260831110043 | 67 | 217 | 4.0 | 10.0 | 0.00 | 0.00 | 0.00 | 25 | 1018.1 |
| 20260831105541 | 67 | 231 | 5.0 | 9.0 | 0.00 | 0.00 | 0.00 | 25 | 1018.1 |
| 20260831105041 | 67 | 256 | 5.0 | 9.0 | 0.00 | 0.00 | 0.00 | 25 | 1018.1 |
| 20260831104541 | 67 | 256 | 3.0 | 7.0 | 0.00 | 0.00 | 0.00 | 25 | 1018.2 |
| 20260831104040 | 67 | 268 | 2.0 | 7.0 | 0.00 | 0.00 | 0.00 | 25 | 1018.2 |
| 20260831103543 | 67 | 259 | 2.0 | 7.0 | 0.00 | 0.00 | 0.00 | 24 | 1018.2 |
| 20260831103044 | 67 | 229 | 3.0 | 8.0 | 0.00 | 0.00 | 0.00 | 24 | 1018.3 |
| 20260831102539 | 67 | 248 | 3.0 | 7.0 | 0.00 | 0.00 | 0.00 | 25 | 1018.3 |
| 20260831102040 | 67 | 222 | 2.0 | 8.0 | 0.00 | 0.00 | 0.00 | 25 | 1018.2 |
| 20260831101539 | 67 | 283 | 4.0 | 8.0 | 0.00 | 0.00 | 0.00 | 24 | 1018.2 |
| 20260831101039 | 67 | 261 | 3.0 | 8.0 | 0.00 | 0.00 | 0.00 | 25 | 1018.2 |
| 20260831100539 | 67 | 258 | 5.0 | 8.0 | 0.00 | 0.00 | 0.00 | 24 | 1018.2 |
| 20260831100058 | 67 | 268 | 5.0 | 8.0 | 0.00 | 0.00 | 0.00 | 25 | 1018.2 |
| 20260831095538 | 67 | 270 | 2.0 | 4.0 | 0.00 | 0.00 | 0.00 | 25 | 1018.2 |
| 20260831095037 | 68 | 279 | 1.0 | 4.0 | 0.00 | 0.00 | 0.00 | 24 | 1018.2 |
| 20260831094537 | 68 | 254 | 2.0 | 6.0 | 0.00 | 0.00 | 0.00 | 24 | 1018.2 |
| 20260831094037 | 68 | 236 | 2.0 | 7.0 | 0.00 | 0.00 | 0.00 | 23 | 1018.2 |
| 20260831093537 | 69 | 229 | 4.0 | 9.0 | 0.00 | 0.00 | 0.00 | 23 | 1018.3 |
| 20260831093045 | 69 | 243 | 5.0 | 9.0 | 0.00 | 0.00 | 0.00 | 23 | 1018.3 |
| 20260831092537 | 69 | 253 | 3.0 | 10.0 | 0.00 | 0.00 | 0.00 | 23 | 1018.2 |
| 20260831092036 | 69 | 239 | 4.0 | 13.0 | 0.00 | 0.00 | 0.00 | 22 | 1018.2 |
| 20260831091538 | 70 | 238 | 5.0 | 13.0 | 0.00 | 0.00 | 0.00 | 22 | 1018.2 |
| 20260831091035 | 70 | 215 | 5.0 | 11.0 | 0.00 | 0.00 | 0.00 | 22 | 1018.2 |
| 20260831090535 | 70 | 216 | 6.0 | 12.0 | 0.00 | 0.00 | 0.00 | 22 | 1018.2 |
| 20260831090035 | 70 | 229 | 6.0 | 11.0 | 0.00 | 0.00 | 0.00 | 22 | 1018.2 |
| 20260831085535 | 70 | 219 | 5.0 | 10.0 | 0.00 | 0.00 | 0.00 | 22 | 1018.2 |
| 20260831085036 | 69 | 218 | 5.0 | 10.0 | 0.00 | 0.00 | 0.00 | 23 | 1018.2 |
| 20260831084536 | 69 | 233 | 7.0 | 11.0 | 0.00 | 0.00 | 0.00 | 23 | 1018.3 |
| 20260831084031 | 68 | 233 | 4.0 | 10.0 | 0.00 | 0.00 | 0.00 | 24 | 1018.3 |
| 20260831083529 | 65 | 229 | 2.0 | 8.0 | 0.00 | 0.00 | 0.00 | 25 | 1018.4 |
| 20260831083028 | 63 | 194 | 1.0 | 4.0 | 0.00 | 0.00 | 0.00 | 27 | 1018.4 |
| 20260831082531 | 62 | 229 | 0.0 | 3.0 | 0.00 | 0.00 | 0.00 | 25 | 1018.4 |
| 20260831082028 | 62 | 221 | 1.0 | 2.0 | 0.00 | 0.00 | 0.00 | 25 | 1018.4 |
| 20260831081534 | 62 | 215 | 0.0 | 3.0 | 0.00 | 0.00 | 0.00 | 25 | 1018.4 |
| 20260831081028 | 62 | 214 | 0.0 | 4.0 | 0.00 | 0.00 | 0.00 | 26 | 1018.4 |
| 20260831080528 | 61 | 240 | 0.0 | 4.0 | 0.00 | 0.00 | 0.00 | 26 | 1018.4 |
| 20260831080026 | 61 | 94 | 0.0 | 5.0 | 0.00 | 0.00 | 0.00 | 27 | 1018.4 |
| 20260831075526 | 61 | 40 | 2.0 | 5.0 | 0.00 | 0.00 | 0.00 | 27 | 1018.5 |
| 20260831075029 | 61 | 29 | 1.0 | 3.0 | 0.00 | 0.00 | 0.00 | 26 | 1018.4 |
| 20260831074528 | 61 | 355 | 0.0 | 2.0 | 0.00 | 0.00 | 0.00 | 26 | 1018.4 |
| 20260831074026 | 61 | 360 | 0.0 | 2.0 | 0.00 | 0.00 | 0.00 | 26 | 1018.3 |
| 20260831073524 | 61 | 360 | 0.0 | 2.0 | 0.00 | 0.00 | 0.00 | 26 | 1018.4 |
| 20260831073023 | 62 | 329 | 0.0 | 3.0 | 0.00 | 0.00 | 0.00 | 25 | 1018.4 |
| 20260831072521 | 62 | 355 | 0.0 | 3.0 | 0.00 | 0.00 | 0.00 | 25 | 1018.3 |
| 20260831072020 | 63 | 355 | 1.0 | 3.0 | 0.00 | 0.00 | 0.00 | 25 | 1018.2 |
| 20260831071519 | 64 | 330 | 0.0 | 2.0 | 0.00 | 0.00 | 0.00 | 24 | 1018.2 |
| 20260831071018 | 64 | 250 | 0.0 | 2.0 | 0.00 | 0.00 | 0.00 | 23 | 1018.2 |
| 20260831070521 | 65 | 250 | 0.0 | 3.0 | 0.00 | 0.00 | 0.00 | 21 | 1018.1 |
| 20260831070017 | 65 | 231 | 0.0 | 3.0 | 0.00 | 0.00 | 0.00 | 22 | 1018.2 |
| 20260831065517 | 64 | 267 | 0.0 | 3.0 | 0.00 | 0.00 | 0.00 | 23 | 1018.2 |
| 20260831065015 | 65 | 267 | 0.0 | 2.0 | 0.00 | 0.00 | 0.00 | 22 | 1018.2 |
| 20260831064515 | 65 | 267 | 0.0 | 2.0 | 0.00 | 0.00 | 0.00 | 22 | 1018.2 |
| 20260831064014 | 65 | 267 | 0.0 | 3.0 | 0.00 | 0.00 | 0.00 | 22 | 1018.2 |
| 20260831063513 | 65 | 229 | 1.0 | 3.0 | 0.00 | 0.00 | 0.00 | 21 | 1018.2 |
| 20260831063014 | 65 | 217 | 1.0 | 2.0 | 0.00 | 0.00 | 0.00 | 21 | 1018.2 |
| 20260831062515 | 65 | 216 | 1.0 | 2.0 | 0.00 | 0.00 | 0.00 | 21 | 1018.3 |
| 20260831062014 | 65 | 217 | 1.0 | 2.0 | 0.00 | 0.00 | 0.00 | 21 | 1018.3 |
| 20260831061513 | 65 | 217 | 0.0 | 3.0 | 0.00 | 0.00 | 0.00 | 21 | 1018.2 |
| 20260831061018 | 65 | 217 | 0.0 | 3.0 | 0.00 | 0.00 | 0.00 | 21 | 1018.2 |
| 20260831060514 | 66 | 213 | 1.0 | 2.0 | 0.00 | 0.00 | 0.00 | 21 | 1018.2 |
| 20260831060012 | 67 | 207 | 1.0 | 2.0 | 0.00 | 0.00 | 0.00 | 20 | 1018.1 |
| 20260831055516 | 67 | 206 | 1.0 | 3.0 | 0.00 | 0.00 | 0.00 | 20 | 1018.2 |
| 20260831055010 | 67 | 208 | 1.0 | 3.0 | 0.00 | 0.00 | 0.00 | 20 | 1018.2 |
| 20260831054510 | 68 | 205 | 2.0 | 3.0 | 0.00 | 0.00 | 0.00 | 20 | 1018.3 |
| 20260831054010 | 68 | 194 | 1.0 | 2.0 | 0.00 | 0.00 | 0.00 | 20 | 1018.3 |
| 20260831053515 | 69 | 192 | 0.0 | 1.0 | 0.00 | 0.00 | 0.00 | 20 | 1018.3 |
| 20260831053032 | 69 | 192 | 0.0 | 1.0 | 0.00 | 0.00 | 0.00 | 20 | 1018.3 |
| 20260831052510 | 70 | 192 | 0.0 | 3.0 | 0.00 | 0.00 | 0.00 | 20 | 1018.3 |
| 20260831052009 | 69 | 192 | 1.0 | 3.0 | 0.00 | 0.00 | 0.00 | 20 | 1018.3 |
| 20260831051509 | 69 | 196 | 2.0 | 3.0 | 0.00 | 0.00 | 0.00 | 20 | 1018.3 |
| 20260831051009 | 69 | 208 | 1.0 | 3.0 | 0.00 | 0.00 | 0.00 | 20 | 1018.4 |
| 20260831050509 | 69 | 199 | 1.0 | 3.0 | 0.00 | 0.00 | 0.00 | 20 | 1018.3 |
| 20260831050010 | 69 | 213 | 1.0 | 3.0 | 0.00 | 0.00 | 0.00 | 19 | 1018.3 |
| 20260831045509 | 69 | 226 | 1.0 | 2.0 | 0.00 | 0.00 | 0.00 | 20 | 1018.4 |
| 20260831045008 | 69 | 238 | 0.0 | 2.0 | 0.00 | 0.00 | 0.00 | 20 | 1018.3 |
| 20260831044512 | 69 | 238 | 0.0 | 2.0 | 0.00 | 0.00 | 0.00 | 20 | 1018.3 |
| 20260831044008 | 69 | 238 | 1.0 | 3.0 | 0.00 | 0.00 | 0.00 | 19 | 1018.2 |
| 20260831043508 | 69 | 236 | 1.0 | 3.0 | 0.00 | 0.00 | 0.00 | 20 | 1018.2 |
| 20260831043007 | 69 | 218 | 1.0 | 3.0 | 0.00 | 0.00 | 0.00 | 19 | 1018.2 |
| 20260831042507 | 69 | 218 | 1.0 | 3.0 | 0.00 | 0.00 | 0.00 | 19 | 1018.3 |
| 20260831042007 | 70 | 223 | 2.0 | 3.0 | 0.00 | 0.00 | 0.00 | 19 | 1018.2 |
| 20260831041507 | 70 | 203 | 1.0 | 3.0 | 0.00 | 0.00 | 0.00 | 20 | 1018.1 |
| 20260831041007 | 71 | 218 | 1.0 | 3.0 | 0.00 | 0.00 | 0.00 | 20 | 1018.1 |
| 20260831040507 | 71 | 235 | 1.0 | 2.0 | 0.00 | 0.00 | 0.00 | 20 | 1018.0 |
| 20260831040007 | 72 | 245 | 1.0 | 2.0 | 0.00 | 0.00 | 0.00 | 20 | 1017.9 |
| 20260831035506 | 72 | 326 | 0.0 | 2.0 | 0.00 | 0.00 | 0.00 | 19 | 1017.8 |
| 20260831035006 | 73 | 326 | 0.0 | 3.0 | 0.00 | 0.00 | 0.00 | 19 | 1017.8 |
| 20260831034506 | 73 | 326 | 0.0 | 5.0 | 0.00 | 0.00 | 0.00 | 19 | 1017.8 |
| 20260831034005 | 73 | 351 | 2.0 | 5.0 | 0.00 | 0.00 | 0.00 | 20 | 1017.7 |
| 20260831033505 | 73 | 281 | 2.0 | 4.0 | 0.00 | 0.00 | 0.00 | 19 | 1017.6 |
| 20260831033012 | 74 | 340 | 1.0 | 6.0 | 0.00 | 0.00 | 0.00 | 19 | 1017.6 |
| 20260831032505 | 74 | 296 | 3.0 | 6.0 | 0.00 | 0.00 | 0.00 | 19 | 1017.5 |
| 20260831032009 | 74 | 280 | 0.0 | 7.0 | 0.00 | 0.00 | 0.00 | 18 | 1017.4 |
| 20260831031505 | 74 | 257 | 3.0 | 8.0 | 0.00 | 0.00 | 0.00 | 18 | 1017.4 |
| 20260831031008 | 74 | 268 | 4.0 | 8.0 | 0.00 | 0.00 | 0.00 | 18 | 1017.2 |
| 20260831030504 | 75 | 281 | 1.0 | 5.0 | 0.00 | 0.00 | 0.00 | 18 | 1017.2 |
| 20260831030007 | 75 | 11 | 2.0 | 8.0 | 0.00 | 0.00 | 0.00 | 17 | 1017.1 |
| 20260831025505 | 76 | 267 | 2.0 | 8.0 | 0.00 | 0.00 | 0.00 | 16 | 1016.9 |
| 20260831025003 | 77 | 342 | 1.0 | 5.0 | 0.00 | 0.00 | 0.00 | 15 | 1016.8 |
| 20260831024504 | 78 | 5 | 0.0 | 3.0 | 0.00 | 0.00 | 0.00 | 14 | 1016.7 |
| 20260831024006 | 79 | 47 | 0.0 | 0.0 | 0.00 | 0.00 | 0.00 | 13 | 1016.6 |
| 20260831023504 | 79 | 46 | 0.0 | 1.0 | 0.00 | 0.00 | 0.00 | 13 | 1016.6 |
| 20260831023003 | 80 | 46 | 0.0 | 1.0 | 0.00 | 0.00 | 0.00 | 14 | 1016.6 |
| 20260831022506 | 80 | 45 | 0.0 | 1.0 | 0.00 | 0.00 | 0.00 | 14 | 1016.6 |
| 20260831022002 | 80 | 45 | 0.0 | 1.0 | 0.00 | 0.00 | 0.00 | 14 | 1016.6 |
| 20260831021502 | 81 | 45 | 0.0 | 3.0 | 0.00 | 0.00 | 0.00 | 13 | 1016.5 |
| 20260831021004 | 82 | 39 | 0.0 | 4.0 | 0.00 | 0.00 | 0.00 | 13 | 1016.5 |
| 20260831020504 | 83 | 24 | 1.0 | 4.0 | 0.00 | 0.00 | 0.00 | 12 | 1016.6 |
| 20260831020004 | 84 | 29 | 1.0 | 4.0 | 0.00 | 0.00 | 0.00 | 12 | 1016.5 |
| 20260831015502 | 84 | 40 | 1.0 | 4.0 | 0.00 | 0.00 | 0.00 | 12 | 1016.5 |
| 20260831015001 | 85 | 42 | 1.0 | 5.0 | 0.00 | 0.00 | 0.00 | 12 | 1016.6 |
| 20260831014501 | 85 | 78 | 1.0 | 5.0 | 0.00 | 0.00 | 0.00 | 12 | 1016.6 |
| 20260831014002 | 86 | 350 | 1.0 | 4.0 | 0.00 | 0.00 | 0.00 | 11 | 1016.5 |
| 20260831013600 | 86 | 34 | 2.0 | 5.0 | 0.00 | 0.00 | 0.00 | 12 | 1016.5 |
| 20260831013101 | 86 | 74 | 2.0 | 5.0 | 0.00 | 0.00 | 0.00 | 11 | 1016.4 |
| 20260831012600 | 87 | 49 | 0.0 | 3.0 | 0.00 | 0.00 | 0.00 | 11 | 1016.5 |
| 20260831012102 | 87 | 84 | 0.0 | 5.0 | 0.00 | 0.00 | 0.00 | 11 | 1016.5 |
| 20260831011607 | 86 | 32 | 0.0 | 5.0 | 0.00 | 0.00 | 0.00 | 11 | 1016.5 |
| 20260831011059 | 86 | 190 | 0.0 | 5.0 | 0.00 | 0.00 | 0.00 | 11 | 1016.5 |
| 20260831010559 | 86 | 198 | 2.0 | 5.0 | 0.00 | 0.00 | 0.00 | 11 | 1016.5 |
| 20260831010058 | 88 | 109 | 2.0 | 6.0 | 0.00 | 0.00 | 0.00 | 10 | 1016.5 |
| 20260831005601 | 88 | 24 | 1.0 | 6.0 | 0.00 | 0.00 | 0.00 | 11 | 1016.7 |
| 20260831005057 | 87 | 38 | 2.0 | 6.0 | 0.00 | 0.00 | 0.00 | 11 | 1016.7 |
| 20260831004559 | 87 | 55 | 3.0 | 5.0 | 0.00 | 0.00 | 0.00 | 11 | 1016.7 |
| 20260831004056 | 87 | 68 | 1.0 | 5.0 | 0.00 | 0.00 | 0.00 | 11 | 1016.8 |
| 20260831003555 | 88 | 139 | 1.0 | 5.0 | 0.00 | 0.00 | 0.00 | 10 | 1016.8 |
| 20260831003055 | 88 | 86 | 1.0 | 7.0 | 0.00 | 0.00 | 0.00 | 11 | 1016.8 |
| 20260831002555 | 88 | 300 | 2.0 | 7.0 | 0.00 | 0.00 | 0.00 | 11 | 1016.9 |
| 20260831002055 | 88 | 5 | 3.0 | 7.0 | 0.00 | 0.00 | 0.00 | 11 | 1016.9 |
| 20260831001554 | 88 | 36 | 3.0 | 9.0 | 0.00 | 0.00 | 0.00 | 11 | 1016.9 |
| 20260831001054 | 88 | 67 | 2.0 | 9.0 | 0.00 | 0.00 | 0.00 | 11 | 1016.9 |
| 20260831000554 | 89 | 42 | 5.0 | 9.0 | 0.00 | 0.00 | 0.00 | 10 | 1017.0 |
| 20260831000054 | 89 | 117 | 1.0 | 6.0 | 0.00 | 0.00 | 0.00 | 10 | 1017.0 |
| 20260830235552 | 89 | 40 | 0.0 | 6.0 | 0.00 | 0.00 | 0.00 | 10 | 1017.1 |
| 20260830235053 | 90 | 49 | 2.0 | 7.0 | 0.00 | 0.00 | 0.00 | 11 | 1017.2 |
| 20260830234606 | 90 | 39 | 3.0 | 6.0 | 0.00 | 0.00 | 0.00 | 10 | 1017.1 |
| 20260830234053 | 91 | 355 | 2.0 | 5.0 | 0.00 | 0.00 | 0.00 | 10 | 1017.1 |
| 20260830233550 | 90 | 76 | 0.0 | 5.0 | 0.00 | 0.00 | 0.00 | 10 | 1017.2 |
| 20260830233050 | 89 | 41 | 2.0 | 4.0 | 0.00 | 0.00 | 0.00 | 10 | 1017.3 |
| 20260830232550 | 89 | 58 | 2.0 | 4.0 | 0.00 | 0.00 | 0.00 | 10 | 1017.3 |